Location: Marysville Observatory
(48.1092°N, 122.1645°W)
Time: 10:13:05
(UTC-08:00)

Daily predictions for brighter satellites

Satellite Brightness Start Highest point End
(mag) Time Altitude Azimuth Time Altitude Azimuth Time Altitude Azimuth
MOS 1 4.3 17:18:14 10° SSE 17:23:51 75° ENE 17:29:33 10° NNW
NOSS 3-2 (A) 4.5 17:18:24 10° WSW 17:24:21 43° NW 17:30:56 10° NE
Cosmos 2360 Rocket 2.7 17:18:57 10° SW 17:24:31 60° WNW 17:30:06 10° NNE
Cosmos 1980 Rocket 4.4 17:23:02 10° WNW 17:26:16 15° NW 17:29:30 10° N
Cosmos 1814 Rocket 4.2 17:24:00 10° SSW 17:29:22 83° WNW 17:34:47 10° NNE
NOSS 3-2 (C) 4.3 17:23:38 10° WSW 17:29:39 47° NW 17:36:19 10° NE
Cosmos 1125 Rocket 3.5 17:24:50 10° NNW 17:30:01 58° ENE 17:35:07 10° SE
Thor Agena Rocket 3.7 17:30:03 10° NNE 17:35:13 54° E 17:40:17 10° S
Tsikada Rocket 4.1 17:29:05 10° S 17:35:29 88° E 17:41:57 10° N
Lacrosse 5 2.7 17:31:22 10° W 17:36:08 40° NNW 17:40:56 10° NE
CORIOLIS 4.2 17:31:10 10° SSE 17:36:31 85° ENE 17:41:56 10° NNW
ATLAS 5 CENTAUR R/B 3.9 17:33:43 10° NW 17:37:10 17° N 17:40:49 10° NE
Cosmos 1500 Rocket 3.9 17:33:13 10° SSE 17:37:20 44° E 17:41:30 10° NNE
Meteor 2-2 Rocket 4.2 17:32:50 10° N 17:38:32 83° E 17:44:10 10° SSE
SPOT 3 Rocket 3.6 17:35:06 10° SSE 17:40:16 87° WSW 17:45:29 10° NNW
Lacrosse 4 Rocket 3.1 17:38:29 10° N 17:40:45 14° NE 17:42:33 11° ENE
SJ-6B 4.2 17:38:55 10° ESE 17:41:56 20° ENE 17:44:58 10° NNE
Cosmos 841 Rocket 3.5 17:38:34 10° SSW 17:43:49 77° ESE 17:49:07 10° NNE
Cosmos 2333 Rocket 2.5 17:39:51 10° S 17:45:13 47° ESE 17:50:37 10° NE
CZ-2C R/B 3.1 17:42:47 10° S 17:47:42 61° W 17:52:28 10° NNW
Cosmos 2084 3.6 17:46:17 10° SSW 17:50:00 46° SE 17:53:03 14° NE
Cosmos 2219 Rocket 2.2 17:44:35 10° SSW 17:50:09 64° ESE 17:55:44 10° NNE
Cosmos 1626 4.0 17:48:56 10° ESE 17:50:13 12° E 17:50:13 12° E
CENTAUR R/B 2.7 17:46:07 10° SW 17:52:21 81° NW 17:59:29 10° NE
Cosmos 1455 3.7 17:51:11 10° NNE 17:53:41 17° ENE 17:56:11 10° ESE
Cosmos 1634 Rocket 3.9 17:47:27 10° N 17:53:42 82° E 17:59:52 10° S
BREEZE-M DEB (TANK) 4.4 17:53:23 10° SSE 17:54:06 11° SE 17:54:50 10° ESE
Cosmos 2322 Rocket 4.3 17:50:17 10° W 17:54:26 20° NW 17:58:37 10° N
Cosmos 2278 Rocket 2.2 17:50:13 10° NNW 17:55:57 86° ENE 18:01:38 10° SSE
Cosmos 1674 3.4 17:53:38 10° SSW 17:57:23 55° WNW 18:01:13 10° N
Molniya-1 4.3 17:55:09 10° SW 17:58:12 90° WSW 18:03:27 11° NE
NOAA 12 4.4 17:53:29 10° SE 17:58:23 42° ENE 18:03:19 10° N
NOSS 0 Rocket 4.1 17:53:20 10° S 17:59:23 56° ESE 18:05:27 10° NE
IDEFIX/ARIANE 42P 3.7 17:55:59 10° S 18:01:00 48° W 18:06:06 10° NNW
Cosmos 1726 2.1 17:59:05 10° N 18:02:53 84° E 18:06:40 10° S
Cosmos 2058 3.3 18:01:36 10° SSE 18:05:27 41° E 18:09:20 10° NNE
Meteor 1-27 4.3 18:01:06 10° N 18:06:54 67° ENE 18:12:42 10° SSE
Aureole 2 Rocket 3.5 18:04:17 10° SSE 18:07:40 32° ESE 18:09:52 19° NE
Cosmos 1340 Rocket 3.4 18:05:50 10° SSE 18:09:24 34° E 18:12:12 15° NE
CZ-4C R/B 4.1 18:06:47 10° NW 18:11:29 21° N 18:15:25 14° NE
Cosmos 332 Rocket 4.1 18:07:20 10° SSW 18:12:10 71° WNW 18:17:03 10° NNE
SL-14 R/B 3.2 18:08:55 10° S 18:12:49 66° E 18:16:48 10° NNE
Cosmos 1300 2.8 18:09:26 10° NNW 18:13:16 77° W 18:17:06 10° S
COSMO-SKYMED 1 2.5 18:09:45 10° NNE 18:14:05 63° E 18:18:23 10° S
Cosmos 1707 Rocket 4.0 18:10:49 10° N 18:14:53 38° ENE 18:18:56 10° SE
Cosmos 1484 Rocket 3.3 18:12:42 10° S 18:16:37 65° WSW 18:20:37 10° NNW
YAOGAN 1 4.2 18:13:43 10° SSW 18:17:44 37° W 18:21:48 10° NNW
Orbus 7S? 4.1 18:16:10 10° NW 18:19:37 52° NNE 18:24:50 16° ESE
Resurs 01 Rocket 2.5 18:18:16 16° ESE 18:20:54 28° ENE 18:24:42 10° N
Cosmos 2237 Rocket 2.1 18:18:23 10° SSW 18:23:58 72° ESE 18:29:03 13° NNE
Cosmos 2369 Rocket 3.6 18:21:15 10° N 18:25:13 19° NE 18:25:43 19° NE
Cosmos 44 3.4 18:20:26 10° SSW 18:25:38 70° SE 18:28:55 22° NE
COSMOS 2428 3.7 18:21:07 10° SW 18:26:35 45° NW 18:32:04 10° NNE
ALOS 2.8 18:23:28 10° SE 18:27:41 35° ENE 18:31:56 10° N
Cosmos 1356 Rocket 4.1 18:24:23 10° SSE 18:27:46 30° E 18:27:46 30° E
Cosmos 1666 Rocket 4.2 18:25:16 10° SSE 18:29:08 33° E 18:30:03 30° ENE
SL-16 R/B 2.7 18:25:11 10° S 18:30:20 37° ESE 18:32:47 25° ENE
Cosmos 372 Rocket 4.4 18:26:58 10° NNW 18:32:00 62° WSW 18:37:01 10° S
Cosmos 2297 3.7 18:31:46 10° NNW 18:37:31 87° ENE 18:43:15 10° SSE
BREEZE M DEB (TANK) 3.0 18:35:15 10° W 18:37:41 28° SSW 18:38:28 22° S
Meteor 1-28 Rocket 3.0 18:34:47 14° NNE 18:37:58 82° ESE 18:41:41 10° S
Cosmos 371 Rocket 4.0 18:36:51 10° SW 18:41:32 52° WNW 18:46:16 10° NNE
Cosmos 2151 3.5 18:38:35 10° SSW 18:42:44 59° WNW 18:46:55 10° N
Cosmos 2279 Rocket 4.2 18:37:15 10° NNW 18:43:27 74° W 18:49:39 10° S
Cosmos 540 Rocket 3.6 18:38:59 10° SSW 18:44:10 76° WNW 18:48:53 13° NNE
Lacrosse 5 rocket 2.7 18:41:22 10° WNW 18:44:50 35° SW 18:48:28 10° SSE
FREGAT/IRIS 2.4 18:42:04 10° SSE 18:45:07 81° ENE 18:48:12 10° N
Cosmos 2242 Rocket 3.7 18:47:09 10° N 18:51:21 48° ENE 18:51:21 48° ENE
USA 215 3.7 18:53:30 10° SE 18:59:58 62° SW 19:06:29 10° WNW
ATLAS 3B R/B 4.1 18:55:02 10° NW 19:00:30 23° N 19:02:47 19° NNE
SL-19 R/B 4.2 18:56:22 10° SSE 19:02:14 86° ENE 19:07:53 10° NNW
Cosmos 44 Rocket 4.2 18:57:59 10° WSW 19:02:54 46° NW 19:05:35 24° NNE
Nadezhda 4 Rocket 3.9 19:01:09 10° S 19:07:23 76° E 19:13:43 10° NNE
Cosmos 1805 Rocket 3.8 19:03:18 10° SSW 19:07:45 72° W 19:11:12 17° N
Abrixas 4.5 19:05:05 10° SW 19:06:32 24° SW 19:06:32 24° SW
FENGYUN 3A 3.5 19:06:00 10° SSE 19:11:21 83° ENE 19:16:46 10° NNW
Cosmos 1980 4.5 19:06:36 10° SW 19:12:07 50° NW 19:16:19 17° NNE
SJ-6B 4.0 19:12:22 10° S 19:16:18 46° W 19:20:18 10° NNW
Lacrosse 4 Rocket 2.1 19:16:04 10° NNW 19:18:56 44° NNW 19:18:56 44° NNW
FengYun 1-2 T 4.2 19:14:35 10° SSE 19:20:09 80° WSW 19:25:43 10° NNW
Lacrosse 5 3.0 19:15:41 10° WNW 19:20:10 30° N 19:20:20 30° N
Cosmos 304 Rocket 4.0 19:17:33 10° SSW 19:22:20 66° WNW 19:23:50 42° N
Spot 2 Rocket 3.4 19:17:27 10° SSE 19:22:31 83° WSW 19:27:36 10° NNW
ATLAS 5 CENTAUR R/B 3.5 19:18:53 10° NNW 19:23:03 27° NNE 19:23:03 27° NNE
Cosmos 1703 4.3 19:20:25 10° SSW 19:24:09 44° WNW 19:25:25 32° NNW
Cosmos 1626 3.0 19:21:50 10° SSW 19:24:58 48° WSW 19:24:58 48° WSW
Cosmos 1092 Rocket 3.9 19:20:32 10° S 19:26:50 77° E 19:33:13 10° NNE
Sich 1 3.3 19:22:39 10° SSW 19:27:04 69° W 19:27:36 62° NW
Cosmos 1455 3.3 19:26:02 10° NNW 19:29:38 42° W 19:33:14 10° SSW
Cosmos 2333 Rocket 3.6 19:24:31 10° WSW 19:29:39 34° NW 19:33:30 16° N
Cosmos 1633 Rocket 3.4 19:28:52 10° SSW 19:32:44 60° WSW 19:32:44 60° WSW
Cosmos 2219 Rocket 4.0 19:29:50 10° WSW 19:34:34 27° NW 19:38:29 14° N
Cosmos 1538 Rocket 4.1 19:29:35 10° SSW 19:34:54 78° WNW 19:35:40 64° N
Cosmos 1461 4.2 19:36:26 10° SW 19:39:01 36° SW 19:39:01 36° SW
Cosmos 1943 Rocket 3.9 19:37:21 10° NNW 19:39:19 19° N 19:39:19 19° N
USA 229 DEB 3.8 19:36:16 10° SSW 19:42:09 55° SSE 19:42:09 55° SSE
USA 229 3.9 19:36:23 10° SSW 19:42:12 54° SSE 19:42:12 54° SSE
CENTAUR R/B 4.0 19:38:21 10° W 19:44:08 31° NNW 19:47:07 23° NNE
Resurs 01 Rocket 3.1 19:55:48 28° SW 19:57:16 35° W 20:01:23 10° NNW
CZ-4C R/B 3.7 19:55:55 10° NW 20:00:37 33° N 20:00:37 33° N
ALOS 4.0 20:01:03 10° SSW 20:05:10 30° W 20:09:18 10° NNW
Cosmos 2237 Rocket 4.1 20:04:02 10° W 20:08:37 25° NW 20:10:55 19° N
Cosmos 2369 Rocket 3.5 20:04:30 10° NNW 20:07:32 33° NNW 20:07:32 33° NNW
SL-16 R/B 3.2 20:09:05 10° WSW 20:14:25 41° NW 20:14:44 41° NW
ATLAS 3B R/B 4.3 20:46:46 10° NW 20:50:03 25° NNW 20:50:03 25° NNW
